Weather in Starocherkasskaya

Russia / Rostov Oblast     47°14′19″N   40°02′15″E
temp.,
°C
wind,
m/s
gust,
m/s
humid.,
%
clouds,
%
prec.,
mm/h
press.,
hPa
HPBL,
m
1 march, mon
mon100:00+2wsw3491100 0.1 1020112
03:00+1w249698 0.1 1021105
06:00+1w359796 0.0 1022194
09:00+1wnw349697 0.1 1024328
12:00+2wnw3485100 0.0 1025461
15:00+4wnw127398 0.1 1025661
18:00+3nw128999 0.4 1026180
21:00+1wnw229392 0.4 102827
2 march, tue
tue200:000nne239383 0.1 102846
03:00−1ne129747 0.1 102929
06:00−1sw119734 0.0 102823
09:00+2wsw468430 0.0 1028369
12:00+4wsw696542 0.0 10261113
15:00+4wsw9125936 0.0 1023955
18:00+2wsw8147286 0.0 1020807
21:00+2wsw8157793 0.0 1019834
3 march, wed
wed300:00+3wsw91677100 0.0 1017749
03:00+2wsw91595100 0.3 1015717
06:00+2w51097100 2.8 1014478
09:00+2wnw5997100 4.4 1016512
12:00+3nnw6985100 0.1 1018773
15:00+4nw686181 0.2 10201426
18:00+3nw4106697 0.1 1021513
21:00+1nw386968 0.1 1024292
4 march, thu
thu400:000w34700 0.0 102596
03:000wsw36750 0.0 1025146
06:000wsw48760 0.0 1025223
09:00+2wsw69670 0.0 1025563
12:00+5wsw710540 0.0 1024933
15:00+6wsw710537 0.0 10221063
18:00+3wsw511666 0.0 1020366
21:00+1sw512723 0.0 1020391
5 march, fri
fri500:00+2sw615841 0.0 1019513
03:00+2sw615896 0.0 1018530
06:00+1sw614901 0.0 1017510
09:00+4sw813774 0.0 1018809
12:00+7wsw811660 0.0 10171102
15:00+9wsw811602 0.0 10171270
18:00+7wsw510680 0.0 1016452
21:00+5sw413800 0.0 1017452